Simultaneous Nadir Overpasses (SNOs) Predictions

Prediction of SNOs between NOAA-15 and METOP-C Satellite Orbit:

Table of predicted SNOs for the next 14.0 days since TLE Epoch: 7/20/2024
Index Date (NOAA-15) Time (NOAA-15) Lat,Lon (NOAA-15) SZA (NOAA-15 ) Date (METOP-C) Time (METOP-C) Lat,Lon (METOP-C) SZA (METOP-C ) Distance(km) Time Diff (sec)
1 08/01/2024 14:18:32 -81.05,-176.54 114.93 08/01/2024 14:17:19 -81.03,-176.51 114.97 1.87 73
2 08/01/2024 15:09:05 81.03, -8.95 65.09 08/01/2024 15:07:58 81.04, -8.84 65.08 2.27 67
3 08/01/2024 15:59:31 -81.03, 158.45 114.90 08/01/2024 15:58:40 -81.04, 158.39 114.93 1.12 51
4 08/01/2024 16:50:05 81.04, -34.33 65.10 08/01/2024 16:49:20 81.04, -34.31 65.08 0.52 45
5 08/01/2024 17:40:31 -81.04, 133.07 114.89 08/01/2024 17:40:02 -81.03, 132.92 114.92 2.69 29
6 08/01/2024 18:31:05 81.05, -59.71 65.11 08/01/2024 18:30:42 81.03, -59.78 65.09 2.05 23
7 08/01/2024 19:21:31 -81.05, 107.69 114.88 08/01/2024 19:21:23 -81.04, 107.82 114.88 2.21 8
8 08/01/2024 20:12:04 81.04, -84.72 65.14 08/01/2024 20:12:03 81.04, -84.88 65.13 2.88 1
9 08/01/2024 21:02:31 -81.05, 82.31 114.87 08/01/2024 21:02:45 -81.04, 82.34 114.87 1.78 14
10 08/01/2024 21:53:04 81.04,-110.10 65.16 08/01/2024 21:53:24 81.05,-109.98 65.18 2.25 20
11 08/01/2024 22:43:30 -81.04, 57.30 114.84 08/01/2024 22:44:06 -81.05, 57.24 114.83 1.18 36
12 08/01/2024 23:34:04 81.05,-135.48 65.17 08/01/2024 23:34:46 81.05,-135.46 65.18 0.43 42
13 08/02/2024 00:24:29 -81.05, 31.92 114.83 08/02/2024 00:25:27 -81.04, 31.77 114.83 2.70 58



Historial Predications of SNOs between NOAA-15 and METOP-C
